User: anonymous   Login
Location: Arbon
(43.0005°N, 0.7472°E)
Time: 07:10:01
(UTC+00:00)
Language:

ARIANE 5 R/B - Orbit

View from above orbital plane
View from above orbital plane
View from above satellite
View from above satellite

Ground track
Ground track

The orbit data is extracted from the following two-line orbital elements,

1 27387U 02009B   20293.64725134 -.00000019 +00000-0 +86152-5 0  9994
2 27387 098.6238 247.2607 0033441 112.0868 248.3874 14.36002190976693
Epoch (UTC): 19 October 2020 15:32:02
Eccentricity: 0.0033441
inclination: 98.6238°
perigee height: 748 km
apogee height: 795 km
right ascension of ascending node: 247.2607°
argument of perigee: 112.0868°
revolutions per day: 14.36002190
mean anomaly at epoch: 248.3874°
orbit number at epoch: 97669

The dashed part of the orbit path shows where the satellite is in the earth's shadow,  

DLR